Location: Zagreb
(45.8000°N, 16.0000°E)
Time: 03:50:42
(UTC+02:00)

Transit 2A - Pass Details

Date: 12 August 2022
Orbit: 601 x 956 km, 66.7° (Epoch: 30 September)

Event Time Altitude Azimuth Distance (km) Brightness Sun altitude
Rises 22:12:21 0° 312° (NW) 2,864 10.7 -18.5°
Reaches altitude 10° 22:15:09 10° 293° (WNW) 1,974 9.1 -18.8°
Maximum altitude 22:18:07 18° 251° (WSW) 1,548 7.8 -19.1°
Drops below altitude 10° 22:21:11 10° 208° (SSW) 2,044 8.0 -19.5°
Enters shadow 22:21:13 10° 208° (SSW) 2,053 8.0 -19.5°
